Location: Caltech
(34.1382°N, 118.1253°W)
Time: 15:11:32
(UTC-07:00)

Uribyol 2 - Visible Passes

Search period start: 27 April 2015 00:00
Search period end: 07 May 2015 00:00
Orbit: 782 x 798 km, 98.7° (Epoch: 26 April)

Date Brightness Start Highest point End Pass type
(mag) Time Alt. Az. Time Alt. Az. Time Alt. Az.
27 Apr ? 01:57:14 10° ENE 01:57:42 11° ENE 01:57:42 11° ENE visible
27 Apr ? 03:34:00 10° N 03:38:25 57° NW 03:38:25 57° NW visible
28 Apr ? 03:04:28 10° NNE 03:08:38 53° NE 03:08:38 53° NE visible
28 Apr ? 04:46:10 10° NW 04:48:39 13° WNW 04:49:22 13° WNW visible
29 Apr ? 02:35:24 10° NE 02:38:50 29° ENE 02:38:50 29° ENE visible
29 Apr ? 04:15:07 10° NNW 04:19:22 25° WNW 04:19:34 25° WNW visible
30 Apr ? 02:07:08 10° NE 02:09:02 15° ENE 02:09:02 15° ENE visible
30 Apr ? 03:45:01 10° N 03:49:46 48° WNW 03:49:46 48° WNW visible
01 May ? 03:15:20 10° NNE 03:19:58 70° NNE 03:19:58 70° NNE visible
01 May ? 04:59:02 10° WNW 04:59:26 10° WNW 04:59:28 10° WNW visible
02 May ? 02:46:05 10° NNE 02:50:10 39° ENE 02:50:10 39° ENE visible
02 May ? 04:26:25 10° NNW 04:30:12 20° WNW 04:30:53 19° WNW visible
03 May ? 02:17:26 10° NE 02:20:21 20° E 02:20:21 20° E visible
03 May ? 03:56:04 10° N 04:00:52 38° WNW 04:01:06 38° WNW visible
04 May ? 03:26:14 10° N 03:31:17 75° NW 03:31:17 75° NW visible
05 May ? 02:56:50 10° NNE 03:01:28 52° E 03:01:28 52° E visible
05 May ? 04:37:51 10° NNW 04:41:01 16° WNW 04:42:12 15° W visible
06 May ? 02:27:55 10° NE 02:31:40 26° E 02:31:40 26° E visible
06 May ? 04:07:12 10° N 04:11:43 30° WNW 04:12:23 29° W visible
